Powrót do katalogu

ONEWEB-0418

AktywnyŁącznośćPO
NORAD 50493·PAYLOAD·🇬🇧 United Kingdom

Wystrzelony Dec 27, 2021 z Baikonur Cosmodrome

Loading…

Następne Przeloty (najbliższe 24 godziny)

TLE

ŚwieżeSource: CelesTrak SupGP

Epoka: Sep 14, 2026, 21:10 UTC

1 50493C 21132AA  26257.88243056 -.00000896  00000+0 -22751-2 0  2578
2 50493  87.9160 317.6369 0001943 111.6910 283.4103 13.18685012    12

Śledź ONEWEB-0418 w czasie rzeczywistym z AllMySat

Download on the App Store